Wind_Speed
4 5 7 9 11 4 5 9 8 11 15 19 9 3 1 1 11 13 17 22 17 16 14 11 10 8 9 10 10 6 10 9 7 6 5 4 4 3 7 9 11 11 9 12
6 9 10 12 10 3 10 8 8 6 6 15 9 4 3 2 5 11 10 11 22 11 14 14 13 7 7 8 8 7 8 9 8 4 5 5 5 5 6 9 12 15 13 12
8 13 12 11 7 4 6 6 9 9 4 6 8 5 3 1 5 11 16 16 20 19 9 12 13 12 8 7 9 7 7 9 6 6 5 6 5 7 10 11 10 13 15 15
12 13 8 5 5 7 4 10 5 4 8 5 7 10 8 9 9 12 13 16 21 23 11 8 10 13 11 7 5 8 5 7 7 6 6 6 6 7 8 11 11 12 17 22
7 3 6 1 4 6 7 5 2 3 9 6 6 13 6 6 3 10 12 18 25 19 14 8 9 11 12 10 7 5 4 4 8 7 7 7 8 9 9 11 13 16 17 21
7 6 4 4 6 3 4 2 8 6 3 10 14 7 12 9 5 10 15 19 23 20 8 13 10 10 8 8 9 5 4 4 7 8 10 10 10 12 13 13 15 14 15 20
6 7 6 4 3 6 7 5 9 9 7 4 7 16 17 7 4 5 18 22 25 15 5 7 14 8 7 5 7 8 5 5 6 7 8 8 10 11 13 15 14 20 20 23
14 9 8 3 3 5 11 6 8 16 8 4 5 16 17 11 8 13 20 23 17 19 18 17 19 12 5 3 7 7 6 6 6 8 9 9 11 11 12 13 15 15 22 22
6 3 9 2 4 6 3 3 6 12 11 8 8 10 11 10 17 20 23 28 32 27 20 26 22 16 9 3 6 9 9 8 6 7 8 7 10 11 10 10 10 10 25 25
8 7 9 9 8 7 14 11 11 13 18 16 14 20 8 14 23 24 24 30 30 30 29 35 27 16 15 8 5 2 6 8 10 10 9 10 9 11 12 11 12 9 27 26
5 4 8 18 19 22 23 24 20 17 15 20 23 23 23 23 23 21 19 21 27 30 34 34 29 23 32 11 12 5 2 4 7 10 11 12 12 11 10 13 11 15 33 24
25 21 18 20 24 32 33 33 29 27 25 25 24 24 30 32 29 32 32 32 39 30 34 26 28 36 24 16 13 6 2 2 8 10 12 11 10 10 8 8 6 16 20 21
28 25 22 18 19 25 30 36 36 36 35 34 33 32 33 39 35 39 40 39 35 40 39 39 35 35 13 5 10 5 9 5 5 11 12 12 10 9 9 8 10 12 17 14
25 26 28 31 26 24 29 30 35 42 41 42 37 42 41 41 43 42 46 47 42 29 32 34 33 31 19 13 6 5 9 13 10 10 14 13 12 11 10 11 12 15 12 10
26 28 28 29 29 30 29 30 32 38 42 44 44 46 50 51 49 45 48 41 45 45 44 42 38 34 31 24 16 11 14 13 13 13 15 15 13 13 12 14 14 17 18 15
36 36 32 29 27 28 30 25 29 32 41 47 50 50 50 50 51 53 51 52 52 54 49 48 49 48 41 31 26 17 17 18 19 12 18 18 16 16 17 14 16 17 21 20
36 37 36 36 34 32 26 29 30 34 37 37 43 47 50 51 52 55 57 57 58 60 58 53 36 38 43 36 39 29 30 27 26 21 20 20 20 20 19 16 16 16 22 23
36 35 37 38 37 37 30 30 33 34 37 37 39 44 46 47 46 45 44 44 45 47 43 36 26 34 39 39 40 39 45 41 31 29 22 25 24 21 21 18 18 17 23 24
35 36 36 37 37 37 34 33 34 36 41 40 40 42 45 46 47 47 46 45 45 45 45 42 43 44 47 49 49 50 55 47 34 32 30 28 28 25 23 21 21 19 24 26
34 36 37 37 38 39 38 37 37 36 41 39 36 40 48 51 52 51 48 47 53 50 47 51 48 43 45 49 48 48 45 41 36 34 33 33 32 31 28 25 24 24 22 28
33 35 36 38 41 43 45 43 39 40 43 43 44 41 40 42 46 48 50 48 51 47 51 57 55 53 43 44 43 44 45 43 39 36 36 34 35 35 33 30 28 25 23 26
36 36 37 38 40 44 44 42 38 39 39 38 41 46 46 49 49 48 49 46 48 51 54 57 58 53 43 44 43 41 43 41 39 39 39 39 41 40 35 32 31 27 27 24
38 38 38 38 37 36 33 34 35 39 39 39 43 44 46 45 45 47 47 48 50 47 49 52 54 50 44 43 44 43 40 40 37 37 40 44 41 43 38 33 35 31 28 28
32 33 32 32 32 33 34 35 36 36 35 33 33 35 36 37 37 37 40 41 40 40 43 42 44 45 43 43 44 45 44 42 41 41 40 42 44 43 37 36 39 37 33 29
32 31 30 30 32 30 25 28 30 32 35 37 38 38 39 39 40 41 41 40 42 43 46 43 42 39 40 44 44 44 49 48 45 41 40 41 45 48 49 47 41 46 38 36
30 29 28 22 22 23 23 23 29 34 37 40 43 43 44 46 43 39 38 37 38 37 41 42 44 41 38 41 43 44 46 51 50 49 46 42 46 48 50 51 50 44 43 50
Wind_Direction
175 199 219 247 269 270 327 301 296 294 294 286 301 300 54 307 10 13 23 44 25 27 29 24 6 19 19 358 344 308 277 283 273 234 241 248 245 194 201 208 202 218 228 248
230 252 258 256 243 247 253 298 275 264 259 274 305 330 313 23 15 17 27 357 14 17 20 19 19 9 9 353 345 328 301 285 298 284 233 242 227 215 216 223 228 220 226 219
263 261 263 254 222 260 273 265 257 271 255 332 299 218 214 230 33 27 16 355 358 19 9 8 10 15 3 350 346 332 304 288 297 291 239 233 232 229 223 235 253 243 243 244
260 261 277 321 322 283 254 273 328 5 15 314 291 235 260 279 356 14 354 340 1 360 350 345 351 3 355 351 349 345 311 285 294 295 280 268 251 249 239 242 250 245 250 237
279 232 167 144 294 302 318 290 115 159 60 52 294 304 328 274 337 326 343 339 348 354 334 327 329 339 343 334 328 351 329 294 298 309 306 301 283 271 261 258 269 265 249 228
229 192 188 25 340 300 352 326 188 179 66 75 21 296 327 320 284 292 320 322 321 330 326 334 320 332 330 324 319 329 316 302 287 290 310 311 294 290 289 278 275 277 227 190
184 218 221 99 62 119 315 256 225 195 199 101 358 322 323 301 249 309 293 298 316 318 29 15 351 317 322 335 332 340 319 278 277 292 302 303 287 287 292 295 297 302 201 176
224 229 257 204 254 15 4 347 224 218 232 230 308 312 302 264 248 248 271 298 307 310 296 292 317 290 294 337 10 353 351 310 293 300 285 290 306 307 297 291 304 291 183 187
205 255 265 330 294 358 360 327 263 249 257 250 291 254 283 283 276 251 282 302 316 306 288 294 293 342 190 170 13 342 354 336 333 314 309 297 304 316 307 312 304 280 187 177
216 230 253 280 262 238 251 253 227 241 254 238 254 263 254 270 286 301 304 301 311 311 299 306 282 339 298 211 195 24 337 345 349 343 330 320 316 315 319 310 295 266 203 187
302 279 243 246 255 265 274 274 258 247 242 251 243 262 270 282 293 287 277 256 288 301 284 284 287 304 322 224 193 150 339 344 352 344 341 330 316 310 313 313 331 166 190 183
267 276 272 261 239 250 261 265 260 254 254 261 249 254 250 257 262 266 279 263 272 276 293 283 286 300 306 336 184 179 230 355 358 353 345 338 311 302 301 302 295 195 194 204
280 286 288 270 251 257 256 251 253 255 259 257 257 256 250 250 252 260 263 270 263 277 292 283 295 291 347 43 336 309 306 302 360 338 337 333 326 297 286 280 265 235 238 253
288 295 291 284 277 260 256 258 250 252 254 256 255 259 261 260 263 268 266 267 272 266 286 294 276 273 292 300 280 280 263 287 301 305 309 316 322 304 277 262 258 253 239 226
286 281 274 278 281 278 272 264 255 249 252 254 251 255 259 258 259 266 272 270 278 278 278 284 286 286 283 289 277 269 250 263 281 291 289 294 304 300 278 260 249 249 248 235
282 284 284 279 275 273 273 274 263 256 251 252 256 257 256 259 265 265 269 269 272 276 280 284 283 281 286 269 249 256 270 268 264 277 284 284 290 289 284 273 253 244 245 240
285 290 294 294 294 288 286 273 266 261 261 256 255 256 258 259 258 259 263 265 267 268 272 279 279 266 251 248 257 260 280 275 272 269 270 276 278 284 284 277 256 254 236 241
283 286 285 288 288 285 283 278 277 276 275 272 268 270 270 270 270 271 273 271 268 271 272 272 262 238 234 234 242 258 270 272 264 261 256 265 268 270 277 271 261 243 230 231
282 283 284 281 280 284 283 278 277 278 280 280 279 279 280 281 280 278 275 273 274 271 270 267 264 255 258 257 250 256 264 264 255 247 250 246 254 253 264 262 258 246 230 229
290 289 289 290 289 286 285 286 289 288 285 281 274 270 267 269 272 275 276 277 272 265 269 271 264 256 254 258 251 253 252 250 243 238 242 242 244 245 253 256 256 248 234 233
291 291 292 290 290 292 292 297 297 287 284 283 281 278 271 265 265 266 268 270 269 266 266 271 268 271 262 257 245 243 243 246 242 236 238 241 243 244 245 248 249 250 242 235
292 290 288 290 288 288 296 297 291 284 282 277 272 270 267 262 264 268 257 264 259 267 271 269 269 268 258 250 245 238 238 241 238 232 232 238 240 237 232 239 241 241 245 234
293 295 296 293 295 293 292 287 282 276 272 273 274 275 278 277 273 272 271 268 267 265 263 262 264 262 253 244 242 238 232 236 236 234 233 234 242 238 226 233 242 240 242 238
295 294 292 294 293 292 293 294 292 294 294 293 290 287 285 281 276 269 266 268 268 267 264 260 257 256 252 245 240 234 231 233 233 233 236 240 237 244 246 232 237 239 238 239
296 294 289 286 290 294 296 290 291 291 294 296 294 293 292 289 281 274 270 270 268 265 265 263 259 254 250 248 240 234 231 229 232 234 237 240 241 239 240 234 235 234 235 233
294 292 290 294 294 298 297 291 288 290 292 291 289 290 292 290 287 279 266 270 276 275 267 263 258 255 249 247 244 238 232 233 232 237 238 241 242 239 239 240 244 238 235 229
Height
5919 5919 5917 5917 5917 5914 5913 5914 5915 5916 5917 5915 5914 5913 5911 5911 5909 5907 5906 5907 5905 5903 5902 5900 5899 5897 5894 5892 5891 5890 5889 5888 5891 5892 5890 5890 5890 5890 5890 5892 5893 5894 5897 5899
5919 5918 5917 5915 5914 5912 5913 5914 5914 5913 5914 5912 5911 5911 5911 5909 5908 5906 5904 5906 5907 5904 5903 5901 5899 5897 5894 5891 5890 5889 5889 5888 5887 5888 5888 5888 5888 5890 5890 5892 5892 5894 5896 5897
5915 5915 5913 5912 5912 5912 5912 5912 5913 5912 5912 5910 5908 5908 5908 5907 5904 5903 5902 5904 5905 5903 5902 5901 5899 5897 5894 5891 5890 5889 5888 5888 5886 5886 5885 5886 5886 5889 5890 5890 5891 5893 5893 5895
5912 5911 5911 5910 5910 5910 5911 5911 5911 5912 5911 5909 5908 5907 5906 5905 5901 5900 5902 5903 5901 5900 5899 5900 5899 5896 5893 5890 5889 5887 5887 5886 5885 5885 5886 5886 5886 5888 5889 5888 5889 5890 5890 5892
5910 5909 5908 5908 5908 5908 5910 5910 5911 5910 5910 5910 5908 5905 5904 5901 5901 5902 5901 5899 5898 5899 5898 5898 5897 5895 5893 5891 5889 5888 5886 5885 5885 5884 5885 5885 5886 5885 5885 5885 5885 5884 5884 5886
5906 5906 5906 5906 5906 5907 5907 5908 5908 5908 5907 5907 5906 5904 5903 5901 5899 5899 5899 5897 5899 5899 5897 5895 5894 5893 5893 5891 5889 5888 5886 5885 5884 5883 5883 5882 5882 5882 5882 5883 5882 5880 5881 5883
5904 5903 5903 5904 5906 5906 5906 5906 5906 5906 5904 5904 5904 5902 5902 5897 5897 5897 5897 5896 5894 5894 5896 5894 5894 5894 5893 5890 5889 5888 5887 5884 5883 5883 5883 5882 5880 5880 5880 5879 5879 5878 5878 5881
5902 5903 5902 5902 5903 5904 5903 5902 5903 5902 5902 5902 5902 5901 5898 5897 5896 5894 5893 5890 5890 5892 5892 5891 5889 5890 5893 5890 5888 5887 5886 5883 5881 5881 5880 5878 5877 5878 5879 5878 5877 5874 5875 5879
5900 5901 5900 5898 5898 5902 5903 5901 5900 5900 5900 5900 5900 5899 5896 5890 5892 5891 5890 5888 5886 5888 5887 5886 5880 5877 5885 5883 5884 5885 5883 5883 5880 5878 5877 5875 5876 5875 5875 5875 5874 5874 5876 5880
5898 5899 5899 5899 5899 5898 5897 5897 5897 5895 5895 5896 5896 5891 5892 5891 5889 5889 5888 5885 5885 5885 5882 5881 5873 5868 5886 5881 5879 5880 5882 5882 5879 5877 5874 5874 5873 5872 5871 5872 5871 5870 5876 5877
5893 5896 5899 5899 5898 5894 5895 5892 5892 5891 5891 5891 5890 5889 5888 5885 5886 5888 5888 5884 5878 5877 5878 5875 5878 5881 5883 5875 5873 5873 5877 5878 5876 5876 5873 5872 5872 5870 5870 5869 5867 5865 5871 5875
5889 5889 5891 5894 5893 5889 5889 5888 5886 5885 5886 5885 5883 5881 5881 5881 5882 5882 5883 5883 5874 5869 5870 5871 5875 5874 5877 5866 5853 5870 5872 5874 5873 5872 5872 5871 5872 5870 5869 5868 5868 5868 5869 5873
5883 5884 5885 5888 5890 5886 5882 5882 5881 5879 5877 5877 5877 5877 5873 5873 5876 5876 5875 5874 5869 5867 5867 5865 5862 5863 5859 5867 5868 5868 5868 5869 5868 5871 5871 5871 5870 5870 5869 5868 5868 5868 5868 5870
5880 5880 5879 5877 5877 5878 5875 5874 5875 5872 5871 5869 5867 5867 5867 5866 5867 5868 5864 5863 5862 5865 5859 5860 5858 5857 5861 5863 5865 5864 5865 5867 5866 5866 5868 5868 5868 5868 5867 5867 5866 5865 5866 5869
5875 5875 5871 5868 5867 5866 5866 5866 5866 5864 5861 5858 5859 5859 5858 5856 5854 5856 5857 5856 5856 5856 5858 5853 5851 5852 5853 5858 5858 5860 5862 5863 5861 5862 5864 5864 5864 5865 5865 5865 5865 5864 5863 5865
5861 5861 5860 5860 5860 5858 5855 5857 5853 5851 5849 5848 5847 5847 5848 5848 5848 5848 5848 5850 5851 5849 5848 5846 5849 5848 5847 5850 5854 5855 5858 5858 5858 5857 5859 5860 5859 5860 5861 5861 5861 5862 5862 5862
5854 5852 5850 5848 5847 5846 5849 5844 5842 5837 5835 5838 5835 5834 5835 5837 5838 5838 5838 5839 5840 5838 5839 5838 5838 5838 5837 5840 5840 5843 5846 5851 5852 5852 5854 5854 5853 5854 5854 5855 5856 5857 5858 5858
5846 5846 5842 5840 5839 5837 5837 5834 5830 5828 5825 5826 5825 5823 5824 5824 5825 5827 5827 5825 5825 5824 5825 5827 5827 5825 5823 5823 5827 5830 5836 5840 5844 5846 5847 5847 5847 5848 5847 5848 5848 5849 5851 5852
5840 5837 5835 5832 5830 5829 5827 5825 5823 5819 5815 5813 5813 5812 5810 5811 5811 5812 5812 5812 5811 5811 5811 5815 5816 5816 5814 5812 5815 5818 5823 5828 5833 5836 5837 5839 5840 5840 5840 5841 5841 5842 5843 5845
5830 5827 5824 5820 5818 5817 5816 5813 5811 5808 5803 5802 5802 5803 5802 5799 5799 5800 5799 5798 5797 5797 5795 5793 5798 5802 5803 5800 5803 5805 5808 5813 5818 5821 5825 5828 5831 5832 5834 5836 5835 5835 5836 5837
5821 5816 5812 5809 5806 5804 5800 5801 5801 5798 5798 5792 5790 5789 5789 5788 5785 5783 5782 5782 5781 5780 5778 5776 5775 5779 5786 5786 5789 5792 5795 5799 5805 5810 5814 5817 5821 5824 5826 5827 5829 5828 5829 5830
5810 5806 5803 5801 5796 5792 5791 5788 5788 5783 5780 5778 5775 5771 5769 5769 5768 5767 5768 5766 5766 5765 5764 5763 5760 5762 5770 5771 5775 5780 5784 5787 5792 5796 5800 5804 5807 5810 5814 5816 5820 5821 5822 5824
5798 5796 5793 5790 5786 5781 5779 5776 5771 5766 5765 5764 5761 5759 5756 5755 5755 5753 5752 5752 5753 5752 5749 5747 5747 5748 5753 5757 5760 5766 5772 5774 5779 5784 5788 5791 5794 5799 5801 5805 5808 5813 5815 5816
5790 5787 5783 5780 5775 5770 5766 5763 5759 5755 5753 5751 5749 5746 5744 5741 5739 5738 5737 5737 5737 5736 5734 5735 5733 5734 5738 5741 5746 5752 5757 5762 5767 5772 5777 5779 5784 5784 5784 5789 5796 5800 5803 5808
5781 5777 5773 5769 5764 5763 5762 5756 5752 5748 5744 5740 5737 5734 5731 5729 5727 5724 5723 5723 5722 5722 5721 5720 5719 5723 5725 5727 5733 5738 5744 5749 5755 5760 5764 5768 5770 5773 5777 5781 5782 5788 5792 5796
5771 5767 5764 5761 5759 5757 5756 5753 5747 5742 5737 5732 5726 5723 5719 5713 5711 5709 5709 5708 5706 5706 5705 5705 5706 5709 5714 5716 5720 5724 5730 5736 5742 5747 5750 5754 5757 5760 5763 5764 5765 5771 5774 5778